Terminal Aerodrome Forecast
Issued by NWS Jackson, MS

Home | Current Version | Previous Version | Text Only | Print | Product List | Glossary On
Versions: 1 2 3 4 5 6 7 8 9 10 11 12 13
055
FTUS44 KJAN 292327
TAFHBG
TAF
KHBG 292327Z 3000/3024 04005KT P6SM SKC
     FM300800 00000KT 4SM BR BKN250
     FM301400 35005KT P6SM SCT250=

USA.gov is the U.S. government's official web portal to all federal, state and local government web resources and services.